Regional Weather Roundup
Issued by NWS

Home | Current Version | Previous Version | Text Only | Print | Product List | Glossary Off
Versions: 1 2 3 4 5 6 7 8 9 10 11 12 13 14 15 16 17 18 19 20 21 22 23 24 25 26 27 28 29 30 31 32 33 34 35 36 37 38 39 40 41 42 43 44 45 46 47 48 49 50

000
ASUS43 KMKX 231248
RWRWI

WISCONSIN REGIONAL WEATHER ROUNDUP
NATIONAL WEATHER SERVICE MILWAUKEE/SULLIVAN WI
800 AM CDT SAT MAY 23 2015

NOTE: "FAIR" INDICATES FEW OR NO CLOUDS BELOW 12,000 FEET WITH NO
SIGNIFICANT WEATHER AND/OR OBSTRUCTIONS TO VISIBILITY.

WIZ001-002-006>008-014>016-023>028-231400-
NORTHWEST WISCONSIN

CITY           SKY/WX    TMP DP  RH WIND       PRES   REMARKS
SUPERIOR ARPT  SUNNY     50  40  67 SW7       30.23R
ASHLAND        SUNNY     57  39  51 SW7       30.24R
HAYWARD        SUNNY     43  39  86 CALM      30.26R
SIREN          SUNNY     45  42  89 CALM      30.25R
CUMBERLAND     SUNNY     45  41  87 CALM      30.26R
RICE LAKE      SUNNY     45  43  92 CALM      30.28R
CHETEK         SUNNY     45  44  95 CALM      30.26S
LADYSMITH      SUNNY     44  40  83 E3        30.29R
EAU CLAIRE     SUNNY     48  44  86 CALM      30.26R
MENOMONIE      SUNNY     50  47  88 CALM      30.26S
NEW RICHMOND   SUNNY     49  43  78 E3        30.24F
OSCEOLA        SUNNY     47  47 100 CALM      30.26S
$$

WIZ003>005-009-010-017-018-231400-
NORTH CENTRAL WISCONSIN

CITY           SKY/WX    TMP DP  RH WIND       PRES   REMARKS
MANITOWISH WTR SUNNY     47  41  78 CALM      30.27R
ARBOR VITAE    SUNNY     48  41  75 CALM      30.27R
WOODRUFF       SUNNY     48  41  75 CALM      30.27R
RHINELANDER    SUNNY     51  38  60 SW3       30.29R
EAGLE RIVER    SUNNY     45  38  75 CALM      30.28R
LAND O LAKES   SUNNY     46  37  71 CALM      30.28R
PHILLIPS       SUNNY     44  41  86 CALM      30.27R
TOMAHAWK       SUNNY     40  39  93 CALM      30.29S
MEDFORD        SUNNY     46  42  85 CALM      30.28R
MERRILL        SUNNY     40  38  95 CALM      30.30S
$$

WIZ029-030-035-036-043>047-231400-
CENTRAL WISCONSIN

CITY           SKY/WX    TMP DP  RH WIND       PRES   REMARKS
WAUSAU         SUNNY     46  40  79 E5        30.28S
MOSINEE        SUNNY     45  41  87 CALM      30.30R
MARSHFIELD     SUNNY     49  42  77 S3        30.29R
STEVENS POINT  SUNNY     47  38  71 CALM      30.31R
WAUPACA        SUNNY     48  38  68 CALM      30.31R
WAUTOMA        SUNNY     45  40  82 CALM      30.33R
WISC RAPIDS    SUNNY     50  36  58 S5        30.32R
CAMP DOUGLAS   SUNNY     52  44  74 S7        30.28S
$$

WIZ011>013-019>022-031-037>040-048>050-231400-
NORTHEAST WISCONSIN

CITY           SKY/WX    TMP DP  RH WIND       PRES   REMARKS
ANTIGO         SUNNY     44  40  85 CALM      30.30R
SHAWANO        SUNNY     48  37  65 CALM      30.31R
OCONTO         SUNNY     45  35  69 CALM      30.30R
STURGEON BAY   SUNNY     50  30  46 SW5       30.33S
GREEN BAY      SUNNY     49  35  58 CALM      30.32R
MANITOWOC      SUNNY     48  39  71 CALM      30.33R
APPLETON       MOSUNNY   46  34  61 VRB5      30.31R
CLINTONVILLE   SUNNY     50  37  62 CALM      30.31R
OSHKOSH        SUNNY     51  35  54 S6        30.31R
$$

WIZ032>034-041-042-053>061-231400-
SOUTHWEST WISCONSIN

CITY           SKY/WX    TMP DP  RH WIND       PRES   REMARKS
LA CROSSE      MOSUNNY   53  44  71 SE5       30.27R
SPARTA         SUNNY     45  42  88 CALM      30.29S
VIROQUA        MOSUNNY   54  40  59 SE8       30.29R
BOSCOBEL       PTSUNNY   50  46  86 CALM      30.30R
PRAIRIE DU CHI MOSUNNY   54  42  64 E3        30.28S
PLATTEVILLE    PTSUNNY   53  40  60 SE7       30.30S
$$

WIZ056-057-062-063-064-067-068-231400-
SOUTH CENTRAL WISCONSIN

CITY           SKY/WX    TMP DP  RH WIND       PRES   REMARKS
REEDSBURG      SUNNY     53  35  50 CALM      30.31R
BARABOO/DELLS  SUNNY     55  32  40 SW3       30.31R
LONE ROCK      SUNNY     53  40  61 CALM      30.31R
MINERAL POINT  SUNNY     52  36  54 SE8       30.30S
MADISON        MOSUNNY   52  35  52 S5        30.32R
MIDDLETON      SUNNY     56  30  37 CALM      30.32R
WATERTOWN      SUNNY     47  38  73 CALM      30.33R
MONROE         MOSUNNY   54  34  47 S12       30.31S
JANESVILLE     SUNNY     48  37  66 CALM      30.32R
$$

WIZ051-052-058>065-066-070>072-231400-
SOUTHEAST WISCONSIN

CITY           SKY/WX    TMP DP  RH WIND       PRES   REMARKS
MILWAUKEE      MOSUNNY   53  33  46 S3        30.34R
WAUKESHA       MOSUNNY   50  32  50 S5        30.34R
MILWAUKEE/TIMM SUNNY     46  37  71 CALM      30.34R
RACINE         SUNNY     54  34  46 S8        30.35R
BURLINGTON     SUNNY     44  39  80 CALM      30.34R
KENOSHA        SUNNY     51  41  68 CALM      30.34R
FOND DU LAC    SUNNY     51  32  48 S6        30.32R
SHEBOYGAN      SUNNY     52  35  52 SW7       30.32R
WEST BEND      SUNNY     50  34  53 CALM      30.33R
JUNEAU         SUNNY     47  34  60 CALM      30.34R
$$

LSZ147-162-231400-
LAKE SUPERIOR

STATION/POSITION TIME  TEMP    WIND        PRES    WAVE
                       AIR SEA DIR/SP/G            HT/PER
                 (UTC) (F)     (DEG/KT/KT) (MB)    (FT/S)
W MID LAKE BUOY  1150   43 36  220/ 12/ 14   N/A     1
DEVILS ISLAND    1200   52     230/ 17/ 18   N/A
PORT WING        1140   47     190/  5/  5   N/A
SAXON HARBOR     1100   51     190/  2/  7   N/A
$$

LMZ867-665-643>646-231400-
LAKE MICHIGAN

STATION/POSITION TIME  TEMP    WIND        PRES    WAVE
                       AIR SEA DIR/SP/G            HT/PER
                 (UTC) (F)     (DEG/KT/KT) (MB)    (FT/S)
CHAMBERS ISLAND  1100   50     190/  6/ 11   N/A
N MID LAKE BUOY  1150   39 36  200/ 10/ 12   N/A     0
SISTER BAY       1118   50     200/  3/  7   N/A
KEWAUNEE LAKESHO 1200   50      CALM  /  1   N/A
SHEBOYGAN LAKESH 1200   52     180/  7/  7   N/A
PORT WASHINGTON  1140   53     190/  5/  7   N/A
ATWATER BUOY     1200   49 45  160/  4/  4   N/A
MILWAUKEE LAKESH 1200   53     190/  4/  4   N/A
S MID LAKE BUOY  1150   43 38  160/  6/  6   N/A     0
KENOSHA   LAKESH 1200   55     200/  4/  7   N/A
$$

TC  - TEMPERATURE IN CELSIUS
VSB - VISIBILITY IN STATUTE MILES
WCI - WIND CHILL INDEX
HX  - HEAT INDEX




USA.gov is the U.S. government's official web portal to all federal, state and local government web resources and services.